DW4736 Weather Reports


time (UTC)temp
C
wind
direction
speed
KPH
gust
KPH
rain 1hr
cm
rain 24hr
cm
rain mn
cm
humidity
%
barometer
mb
20260504222304 13 51 0.0 0.0 0.00 0.00 0.00 89 1011.6
20260504221805 13 51 0.0 0.0 0.00 0.00 0.00 89 1011.6
20260504221306 13 51 0.0 0.0 0.00 0.00 0.00 89 1011.7
20260504220806 13 51 0.0 0.0 0.00 0.00 0.00 89 1011.9
20260504220749 13 51 0.0 0.0 0.00 0.00 0.00 89 1011.9
20260504220742 13 51 0.0 0.0 0.00 0.00 0.00 88 1012.1
20260504215301 13 51 0.0 0.0 0.00 0.00 0.00 88 1012.1
20260504214804 13 51 0.0 0.0 0.00 0.00 0.00 88 1012.2
20260504214730 13 51 0.0 0.0 0.00 0.00 0.00 88 1012.2
20260504213804 14 51 0.0 0.0 0.00 0.00 0.00 88 1012.3
20260504213301 14 51 0.0 0.0 0.00 0.00 0.00 88 1012.4
20260504212801 14 51 0.0 0.0 0.00 0.00 0.00 87 1012.4
20260504212304 14 51 0.0 0.0 0.00 0.00 0.00 87 1012.5
20260504211801 14 51 0.0 0.0 0.00 0.00 0.00 87 1012.5
20260504211259 14 51 0.0 0.0 0.00 0.00 0.00 87 1012.5
20260504211252 14 51 0.0 0.0 0.00 0.00 0.00 87 1012.6
20260504210322 14 51 0.0 0.0 0.00 0.00 0.00 87 1012.6
20260504205258 14 51 0.0 0.0 0.00 0.00 0.00 86 1012.5
20260504204757 14 51 0.0 0.0 0.00 0.00 0.00 86 1012.6
20260504204301 14 51 0.0 0.0 0.00 0.00 0.00 86 1012.6
20260504203759 14 51 0.0 0.0 0.00 0.00 0.00 86 1012.6
20260504203255 15 51 0.0 0.0 0.00 0.00 0.00 86 1012.6
20260504202753 15 51 0.0 0.0 0.00 0.00 0.00 86 1012.7
20260504202255 15 51 0.0 0.0 0.00 0.00 0.00 85 1012.6
20260504202229 15 51 0.0 0.0 0.00 0.00 0.00 85 1012.5
20260504201258 15 51 0.0 0.0 0.00 0.00 0.00 85 1012.5
20260504200753 15 51 0.0 0.0 0.00 0.00 0.00 84 1012.5
20260504200252 15 51 0.0 0.0 0.00 0.00 0.00 84 1012.6
20260504195745 15 51 0.0 0.0 0.00 0.00 0.00 83 1012.5
20260504195251 15 51 0.0 0.0 0.00 0.00 0.00 83 1012.4
20260504194745 15 51 0.0 0.0 0.00 0.00 0.00 83 1012.3
20260504194245 16 51 0.0 0.0 0.00 0.00 0.00 82 1012.3
20260504193743 16 51 0.0 0.0 0.00 0.00 0.00 82 1012.3
20260504193242 16 51 0.0 0.0 0.00 0.00 0.00 81 1012.4
20260504192744 16 51 0.0 0.0 0.00 0.00 0.00 81 1012.3
20260504192243 16 51 0.0 0.0 0.00 0.00 0.00 80 1012.2
20260504191745 16 51 0.0 0.0 0.00 0.00 0.00 80 1012.3
20260504191244 16 51 0.0 0.0 0.00 0.00 0.00 80 1012.3
20260504191237 16 51 0.0 0.0 0.00 0.00 0.00 79 1012.4
20260504190244 17 51 0.0 0.0 0.00 0.00 0.00 78 1012.3
20260504185737 17 51 0.0 0.0 0.00 0.00 0.00 77 1012.3
20260504185659 17 51 0.0 0.0 0.00 0.00 0.00 77 1012.3
20260504184941 17 51 0.0 0.0 0.00 0.00 0.00 77 1012.2
20260504183732 17 51 0.0 0.0 0.00 0.00 0.00 75 1012.1
20260504183656 17 51 0.0 0.0 0.00 0.00 0.00 75 1012.1
20260504182739 17 51 0.0 0.0 0.00 0.00 0.00 74 1012.1
20260504182230 18 51 0.0 0.0 0.00 0.00 0.00 73 1012.0
20260504181729 18 51 0.0 0.0 0.00 0.00 0.00 73 1012.0
20260504181232 18 51 0.0 0.0 0.00 0.00 0.00 72 1012.1
20260504180739 18 51 0.0 0.0 0.00 0.00 0.00 71 1012.1
20260504180231 18 51 0.0 0.0 0.00 0.00 0.00 69 1012.0
20260504175232 20 51 0.0 0.0 0.00 0.00 0.00 67 1012.0
20260504174731 20 51 0.0 0.0 0.00 0.00 0.00 64 1012.1
20260504174231 20 51 0.0 0.0 0.00 0.00 0.00 60 1011.9
20260504173728 21 51 0.0 0.0 0.00 0.00 0.00 57 1011.9
20260504173254 21 51 0.0 0.0 0.00 0.00 0.00 55 1012.0
20260504173246 21 51 0.0 0.0 0.00 0.00 0.00 57 1012.0
20260504173229 21 51 0.0 0.0 0.00 0.00 0.00 55 1011.9
20260504171722 21 51 0.0 0.0 0.00 0.00 0.00 55 1011.9
20260504171225 21 51 0.0 0.0 0.00 0.00 0.00 55 1011.9
20260504170734 21 51 0.0 0.0 0.00 0.00 0.00 54 1011.9
20260504170225 21 51 0.0 0.0 0.00 0.00 0.00 54 1011.9
20260504160215 22 337 0.0 0.0 0.00 0.00 0.00 52 1012.1
20260504150710 23 324 0.0 0.0 0.00 0.00 0.00 51 1012.1
20260504150211 23 75 0.0 0.0 0.00 0.00 0.00 52 1012.1
20260504140705 23 102 0.0 0.0 0.00 0.00 0.00 51 1012.3
20260504140203 23 355 0.0 0.0 0.00 0.00 0.00 52 1012.3
20260504130708 24 69 0.0 0.0 0.00 0.00 0.00 45 1012.4
20260504130204 24 69 0.0 0.0 0.00 0.00 0.00 44 1012.4
20260504120235 24 93 0.0 0.0 0.00 0.00 0.00 47 1012.6
20260504120209 24 93 0.0 0.0 0.00 0.00 0.00 47 1012.6
20260504110707 23 106 0.0 0.0 0.00 0.00 0.00 46 1013.2
20260504110205 23 106 0.0 0.0 0.00 0.00 0.00 46 1013.3
20260504100213 23 103 0.0 0.0 0.00 0.00 0.00 49 1014.0
20260504100203 23 103 0.0 0.0 0.00 0.00 0.00 48 1014.1
20260504081657 21 103 0.0 0.0 0.00 0.00 0.00 53 1014.6
20260504081201 20 103 0.0 0.0 0.00 0.00 0.00 57 1014.6
20260504080657 20 103 0.0 0.0 0.00 0.00 0.00 53 1014.6
20260504080157 20 103 0.0 0.0 0.00 0.00 0.00 55 1014.5
20260504060147 14 103 0.0 0.0 0.00 0.00 0.00 84 1014.5
20260504050624 13 103 0.0 0.0 0.00 0.00 0.00 85 1014.0
20260504050125 13 103 0.0 0.0 0.00 0.00 0.00 85 1014.1
20260504045623 13 103 0.0 0.0 0.00 0.00 0.00 85 1013.9
20260504045125 13 103 0.0 0.0 0.00 0.00 0.00 85 1013.7
20260504044655 13 103 0.0 0.0 0.00 0.00 0.00 85 1013.7
20260504044633 13 103 0.0 0.0 0.00 0.00 0.00 84 1014.0
20260504043623 13 103 0.0 0.0 0.00 0.00 0.00 85 1013.7
20260504043130 13 103 0.0 0.0 0.00 0.00 0.00 85 1013.5
20260504042621 13 103 0.0 0.0 0.00 0.00 0.00 85 1013.4
20260504042117 12 103 0.0 0.0 0.00 0.00 0.00 85 1013.5
20260504041617 12 103 0.0 0.0 0.00 0.00 0.00 85 1013.5
20260504041115 12 103 0.0 0.0 0.00 0.00 0.00 85 1013.5
20260504040614 13 103 0.0 0.0 0.00 0.00 0.00 84 1013.5
20260504040119 13 103 0.0 0.0 0.00 0.00 0.00 83 1013.6
20260504035612 13 103 0.0 0.0 0.00 0.00 0.00 84 1013.4
20260504035550 13 103 0.0 0.0 0.00 0.00 0.00 83 1013.6
20260504034615 13 103 0.0 0.0 0.00 0.00 0.00 83 1013.3
20260504034111 13 103 0.0 0.0 0.00 0.00 0.00 84 1013.6
20260504033610 12 103 0.0 0.0 0.00 0.00 0.00 84 1013.5
20260504033114 12 103 0.0 0.0 0.00 0.00 0.00 84 1013.0
20260504032805 12 103 0.0 0.0 0.00 0.00 0.00 84 1012.9
20260504031609 12 103 0.0 0.0 0.00 0.00 0.00 85 1013.7
20260504031108 12 103 0.0 0.0 0.00 0.00 0.00 85 1013.7
20260504030609 12 103 0.0 0.0 0.00 0.00 0.00 85 1013.7
20260504030111 12 103 0.0 0.0 0.00 0.00 0.00 85 1013.6
20260504025609 12 103 0.0 0.0 0.00 0.00 0.00 86 1013.6
20260504025105 12 103 0.0 0.0 0.00 0.00 0.00 86 1013.6
20260504024611 12 103 0.0 0.0 0.00 0.00 0.00 86 1013.6
20260504024104 12 103 0.0 0.0 0.00 0.00 0.00 86 1013.8
20260504023605 12 103 0.0 0.0 0.00 0.00 0.00 86 1013.8
20260504023108 12 103 0.0 0.0 0.00 0.00 0.00 86 1013.8
20260504022605 12 103 0.0 0.0 0.00 0.00 0.00 85 1013.6
20260504022107 12 103 0.0 0.0 0.00 0.00 0.00 85 1013.7
20260504021602 12 103 0.0 0.0 0.00 0.00 0.00 85 1013.7
20260504021114 12 103 0.0 0.0 0.00 0.00 0.00 85 1013.7
20260504020604 12 103 0.0 0.0 0.00 0.00 0.00 85 1013.6
20260504020117 12 103 0.0 0.0 0.00 0.00 0.00 84 1013.7
20260504015602 12 103 0.0 0.0 0.00 0.00 0.00 84 1013.7
20260504015103 12 103 0.0 0.0 0.00 0.00 0.00 84 1013.6
20260504014602 12 103 0.0 0.0 0.00 0.00 0.00 84 1013.7
20260504014102 12 103 0.0 0.0 0.00 0.00 0.00 84 1013.7
20260504014047 12 103 0.0 0.0 0.00 0.00 0.00 84 1013.7
20260504013102 12 103 0.0 0.0 0.00 0.00 0.00 84 1013.4
20260504012602 12 103 0.0 0.0 0.00 0.00 0.00 84 1013.4
20260504012104 12 103 0.0 0.0 0.00 0.00 0.00 84 1013.5
20260504012025 12 103 0.0 0.0 0.00 0.00 0.00 84 1013.5
20260504011101 12 103 0.0 0.0 0.00 0.00 0.00 85 1013.5
20260504010602 12 103 0.0 0.0 0.00 0.00 0.00 85 1013.4
20260504010143 12 103 0.0 0.0 0.00 0.00 0.00 85 1013.5
20260504010110 12 103 0.0 0.0 0.00 0.00 0.00 85 1013.4
20260504005103 11 103 0.0 0.0 0.00 0.00 0.00 85 1013.5
20260504004601 12 103 0.0 0.0 0.00 0.00 0.00 85 1013.4
20260504004101 12 103 0.0 0.0 0.00 0.00 0.00 85 1013.4
20260504003603 12 103 0.0 0.0 0.00 0.00 0.00 84 1013.4
20260504003105 12 103 0.0 0.0 0.00 0.00 0.00 84 1013.4
20260504002608 12 103 0.0 0.0 0.00 0.00 0.00 84 1013.4
20260504002108 12 103 0.0 0.0 0.00 0.00 0.00 84 1013.3
20260504001558 12 103 0.0 0.0 0.00 0.00 0.00 83 1013.2
20260504001058 12 103 0.0 0.0 0.00 0.00 0.00 83 1013.2
20260504001038 12 103 0.0 0.0 0.00 0.00 0.00 82 1013.0
20260504000108 12 103 0.0 0.0 0.00 0.00 0.00 82 1013.0
20260503235559 12 103 0.0 0.0 0.00 0.00 0.00 82 1012.9
20260503235057 12 103 0.0 0.0 0.00 0.00 0.00 81 1012.9
20260503234600 12 103 0.0 0.0 0.00 0.00 0.00 80 1012.9
20260503234555 12 103 0.0 0.0 0.00 0.00 0.00 81 1012.9
20260503233558 12 103 0.0 0.0 0.00 0.00 0.00 80 1012.9
20260503233534 13 103 0.0 0.0 0.00 0.00 0.00 79 1012.8
20260503232554 13 103 0.0 0.0 0.00 0.00 0.00 79 1013.0
20260503232054 13 103 0.0 0.0 0.00 0.00 0.00 79 1013.0
20260503231555 13 103 0.0 0.0 0.00 0.00 0.00 79 1012.9
20260503231056 13 103 0.0 0.0 0.00 0.00 0.00 78 1012.7
20260503230552 13 103 0.0 0.0 0.00 0.00 0.00 78 1012.9
20260503230100 13 103 0.0 0.0 0.00 0.00 0.00 77 1012.5
20260503225551 13 103 0.0 0.0 0.00 0.00 0.00 77 1012.5
20260503225537 13 103 0.0 0.0 0.00 0.00 0.00 77 1012.6
20260503224552 13 103 0.0 0.0 0.00 0.00 0.00 76 1012.5
20260503224048 14 103 0.0 0.0 0.00 0.00 0.00 75 1012.6
20260503223550 14 103 0.0 0.0 0.00 0.00 0.00 74 1012.4
20260503223534 14 103 0.0 0.0 0.00 0.00 0.00 75 1012.5